Wind_Speed
18 18 18 19 21 20 21 21 20 18 16 17 16 15 14 11 10 10 10 10 11 12 11 10 10 10 10 9 8 7 6 6 6 6 6 7 7 8 9 9 9 9 9 9 9 9 9 9 9
18 18 18 19 21 21 22 21 20 18 18 17 16 14 13 11 10 10 10 10 12 11 11 10 10 10 9 9 8 7 6 6 6 6 6 6 7 7 8 8 8 8 8 8 8 9 9 9 9
16 16 18 20 21 22 23 22 21 20 18 17 16 15 13 11 11 11 10 10 11 11 10 10 10 9 9 8 8 7 6 6 5 5 5 5 6 6 7 7 7 7 8 8 8 8 8 8 9
14 14 17 19 21 22 22 22 21 19 18 18 17 16 13 12 12 11 11 11 11 10 9 9 9 9 8 8 7 6 6 5 5 5 5 5 5 5 6 6 7 7 7 7 8 8 8 8 8
12 13 16 18 20 21 21 22 21 19 18 18 17 16 14 13 13 12 12 11 11 10 9 9 9 9 8 8 7 6 6 5 5 5 5 4 4 4 4 5 6 6 7 7 7 7 7 7 8
10 13 14 15 17 18 20 21 21 18 18 17 17 17 16 14 13 12 12 11 11 10 9 9 9 9 8 8 8 7 6 5 5 5 5 4 4 4 4 5 5 5 6 6 6 7 7 7 7
8 12 12 14 15 17 19 19 19 18 17 17 17 17 17 15 13 12 12 12 11 10 9 9 9 9 8 8 7 6 5 5 5 5 4 3 3 3 4 4 4 5 5 5 6 6 7 7 7
8 10 10 11 12 14 16 17 17 17 18 17 17 17 17 16 15 13 13 12 11 10 9 9 9 8 7 7 7 6 5 5 4 4 4 3 3 3 3 3 4 4 5 5 6 6 6 6 6
7 8 7 8 9 11 13 15 16 17 17 18 18 18 16 15 14 14 13 13 12 11 10 9 9 9 8 7 7 6 5 5 5 4 3 3 3 3 2 3 4 4 4 4 5 5 5 5 5
6 6 6 7 7 9 11 12 14 16 17 18 18 17 16 15 14 14 13 13 12 12 11 11 10 9 8 8 7 6 6 5 4 4 3 3 3 3 3 3 3 3 4 4 4 4 4 5 4
3 3 4 5 4 6 8 10 12 14 16 17 17 17 16 15 14 14 13 13 13 11 11 10 10 9 9 8 8 7 6 5 4 3 3 3 4 4 4 4 3 3 3 4 4 4 4 4 4
5 2 1 2 3 5 7 9 10 12 14 15 16 16 15 15 14 14 13 13 13 12 11 9 9 9 9 8 7 7 6 5 4 4 4 4 4 4 4 4 4 3 3 3 4 3 4 4 4
7 6 3 1 1 3 5 8 10 11 12 14 15 14 14 14 13 13 13 13 13 13 12 10 8 8 8 8 7 6 6 5 4 3 3 4 4 4 3 3 3 3 3 3 3 3 3 3 3
9 8 5 3 2 3 5 7 9 10 11 12 13 12 12 13 13 13 13 13 13 13 12 11 9 8 8 8 7 7 6 5 4 3 3 3 3 3 3 3 3 2 2 2 2 3 3 3 3
9 8 6 4 3 4 6 7 8 9 10 11 11 11 11 12 12 13 13 13 13 13 13 12 10 9 8 8 7 7 6 5 4 4 3 3 2 2 2 2 2 2 1 2 2 2 2 2 2
11 10 8 5 3 4 6 8 8 9 10 10 10 11 11 11 11 12 13 13 13 13 13 13 12 10 9 8 7 7 6 5 4 4 3 3 2 2 1 1 1 1 1 1 1 1 1 1 0
13 11 10 8 5 6 7 9 9 9 9 9 9 9 10 10 11 11 12 12 12 13 13 13 12 11 10 9 8 7 6 5 4 3 3 2 1 1 0 1 1 1 1 1 1 2 2 2 2
14 12 12 9 7 8 9 10 10 9 8 8 8 9 10 10 10 10 11 11 11 12 13 13 12 11 10 9 9 7 5 4 3 3 2 2 1 0 1 2 2 2 2 2 3 3 3 3 3
16 15 13 11 10 11 11 12 11 11 9 9 9 9 9 9 9 9 9 10 10 11 11 12 12 11 10 9 9 7 6 4 3 3 3 1 1 1 2 2 2 3 3 3 4 4 4 4 4
19 17 16 13 12 12 13 13 13 12 11 10 9 8 8 8 8 9 10 8 9 10 11 11 11 10 9 9 8 7 5 4 4 4 3 2 2 2 3 4 3 4 5 5 5 5 5 6 5
20 20 18 16 13 13 14 14 14 14 12 10 10 9 8 8 9 10 10 10 9 9 10 10 10 10 9 8 8 7 6 5 5 5 5 4 4 4 4 5 5 5 6 6 7 7 7 7 7
21 20 20 18 16 16 16 16 13 14 13 10 10 10 9 9 10 10 10 10 10 9 10 10 10 10 9 8 7 6 6 5 6 6 5 5 5 6 6 6 6 6 7 7 7 7 8 9 9
21 21 21 20 19 17 17 18 15 15 13 11 11 12 11 10 10 11 10 10 10 10 10 10 10 10 9 8 7 6 6 6 6 6 5 6 6 6 7 7 7 7 7 8 8 9 9 10 10
24 24 24 23 22 20 18 20 18 16 14 13 13 12 12 11 11 11 10 10 10 10 10 10 10 9 8 8 7 7 6 6 7 6 6 6 6 6 7 7 7 7 8 9 9 10 11 11 11
26 26 26 25 24 22 20 20 17 15 14 13 13 13 12 11 11 11 11 10 10 10 10 10 9 9 9 8 7 7 8 8 8 8 8 7 6 6 7 6 6 7 8 9 9 10 11 12 12
28 27 27 26 25 21 20 20 16 14 14 14 14 13 12 11 12 12 12 11 10 11 11 10 9 8 9 9 8 8 9 9 9 9 8 8 8 8 8 8 8 8 9 10 10 10 11 12 12
28 28 27 27 26 23 20 17 15 15 14 14 14 14 13 12 12 13 13 11 11 12 12 9 9 8 9 9 9 9 9 9 9 9 9 9 9 10 10 10 9 10 10 10 11 11 11 12 12
28 28 28 28 27 25 21 18 16 14 15 14 15 15 14 14 13 13 13 12 12 13 12 10 9 9 9 9 10 10 9 10 11 10 10 10 11 11 11 10 10 10 10 10 11 11 11 11 12
28 29 29 28 28 26 23 21 18 16 16 16 15 16 16 15 14 14 13 13 13 14 12 11 11 10 10 10 10 10 10 11 11 11 11 12 12 11 11 10 9 9 9 10 11 12 13 13 13
27 27 28 29 29 28 25 22 20 18 17 17 16 16 16 15 14 14 14 14 15 14 13 12 12 12 11 11 11 11 11 11 12 13 13 13 12 11 11 10 10 10 10 12 12 13 14 14 14
Wind_Direction
80 71 64 59 50 50 55 56 55 55 51 48 42 42 45 51 57 61 63 64 66 67 66 66 65 64 61 58 56 58 69 72 74 81 89 95 101 106 108 107 105 103 101 98 93 92 92 91 90
79 71 61 56 50 48 52 53 54 53 52 50 45 43 45 49 54 59 61 61 63 65 65 64 61 61 60 58 54 56 60 61 65 78 88 97 102 107 109 109 107 105 103 99 95 94 91 89 89
84 71 60 55 51 48 50 52 51 49 48 50 49 46 46 48 51 53 57 58 60 61 62 62 59 59 57 57 53 48 49 55 61 75 84 88 97 107 111 112 109 107 104 97 95 93 90 88 85
84 73 62 54 47 48 48 49 49 45 46 48 49 46 45 45 49 51 54 57 60 59 59 59 58 56 55 55 51 43 50 52 59 69 77 82 91 104 108 109 105 104 99 93 91 90 89 86 83
86 72 61 52 44 45 44 46 45 40 40 44 47 47 46 46 47 48 53 54 56 57 57 57 59 58 58 58 54 51 49 54 60 66 72 79 89 96 97 104 102 99 96 92 89 88 86 84 83
82 70 62 51 44 43 42 42 43 38 37 41 45 48 48 47 47 47 52 54 53 54 57 59 63 59 59 54 52 50 49 54 58 62 67 79 85 91 97 105 103 98 96 92 91 87 85 86 86
84 70 60 49 40 37 36 38 39 37 36 37 42 45 47 48 48 46 48 51 52 53 55 56 58 57 54 53 48 45 48 59 61 66 71 81 92 94 90 99 100 99 95 92 91 87 87 91 90
85 67 57 46 37 33 33 33 37 39 36 36 40 44 45 47 47 47 47 48 49 50 52 56 56 55 55 55 49 46 50 55 60 70 81 89 93 85 84 101 103 100 95 91 90 87 87 90 91
98 78 59 47 33 27 29 28 34 37 35 35 38 40 42 44 45 47 46 45 46 48 51 54 56 53 54 55 50 49 50 53 60 70 84 90 88 82 95 114 109 102 98 96 93 92 92 92 92
108 79 59 51 26 17 21 22 29 35 31 32 35 37 39 42 44 46 45 44 44 45 45 46 51 49 51 51 49 50 51 54 60 63 73 91 101 99 102 112 112 105 99 97 97 100 97 95 95
137 91 69 59 31 5 9 19 27 32 31 32 31 32 35 38 42 45 45 43 42 42 45 44 46 46 47 45 41 48 48 56 60 57 69 99 107 100 105 107 114 108 101 95 95 104 103 95 92
180 153 149 68 26 355 4 14 20 23 26 29 28 29 31 34 38 42 43 41 40 41 39 37 43 46 42 38 43 47 42 45 55 62 69 90 100 100 105 106 111 109 105 93 90 99 103 102 95
194 183 184 173 358 355 352 360 5 9 19 26 25 26 28 30 33 37 39 38 36 36 38 37 36 42 43 41 42 43 36 33 56 74 84 88 93 99 97 104 105 103 100 90 84 92 103 110 101
203 194 195 199 262 314 328 340 346 357 12 21 21 22 24 28 31 33 33 32 31 30 32 37 37 39 37 38 43 43 39 49 62 70 82 89 94 102 104 109 110 111 108 97 91 98 99 91 89
207 205 212 219 260 303 322 326 337 353 2 12 17 19 22 26 29 30 30 29 29 29 29 31 34 38 40 41 43 41 41 56 57 61 64 75 99 108 118 119 120 122 123 116 106 109 102 94 86
208 207 215 223 248 289 302 315 329 340 349 3 11 14 17 23 26 25 26 28 29 28 27 28 31 36 39 43 42 39 41 48 55 65 61 72 99 106 107 145 160 160 170 123 123 141 161 164 154
210 209 210 219 233 269 290 307 319 327 338 353 1 5 10 16 20 20 21 23 26 27 26 27 29 32 35 35 32 35 40 46 56 62 65 72 97 102 118 179 215 230 231 228 218 212 228 239 247
214 215 213 215 233 259 280 296 301 311 325 342 350 352 358 5 10 15 15 16 21 23 24 23 23 25 24 24 25 31 34 38 50 49 53 56 34 304 255 247 246 247 239 243 244 239 236 246 250
216 212 208 210 227 251 269 286 292 299 309 325 339 343 347 354 0 4 5 9 13 16 16 15 15 17 19 17 16 20 27 30 38 31 14 343 308 297 245 255 253 251 251 254 253 250 246 250 253
217 214 209 212 226 246 261 273 283 292 302 314 325 335 343 353 355 353 359 358 1 5 6 5 4 7 9 11 11 13 15 20 17 9 346 312 281 274 253 257 261 260 257 254 253 254 255 259 262
217 212 210 215 224 241 252 258 268 280 291 305 317 328 333 341 339 341 347 353 353 356 357 356 356 360 359 359 3 4 3 359 350 351 343 322 283 281 276 265 268 263 260 255 254 255 258 260 262
219 215 212 216 227 240 252 259 258 266 278 291 306 310 318 324 326 328 337 341 341 341 345 347 348 352 354 351 352 357 353 341 342 343 337 324 297 282 282 274 270 269 268 261 257 262 263 265 265
221 219 216 219 228 236 244 253 251 257 268 282 298 305 308 312 316 315 322 329 329 330 334 338 342 346 350 348 348 349 347 343 339 337 330 321 307 290 286 279 270 269 267 266 263 264 267 269 268
221 220 219 222 227 232 238 248 250 254 266 277 283 293 296 300 307 309 312 315 319 321 322 327 333 339 344 347 350 352 350 347 339 333 325 316 308 296 289 284 274 268 264 267 269 267 267 267 270
222 222 221 223 228 232 237 247 255 257 263 271 276 283 288 296 304 307 305 303 307 308 311 318 323 331 334 337 340 346 348 346 338 330 326 319 306 297 293 293 284 274 266 269 272 273 274 273 274
225 226 226 227 231 234 238 245 251 251 257 265 271 277 284 291 303 302 303 301 299 300 301 306 310 317 325 331 333 334 339 340 336 332 329 321 310 302 295 291 281 278 274 272 272 273 278 280 281
225 226 227 228 230 231 231 240 246 250 257 261 266 275 285 293 298 299 299 301 299 301 301 297 303 314 321 323 324 326 328 329 329 327 324 321 314 310 303 289 282 281 284 277 276 277 278 279 281
223 224 225 226 226 227 230 237 242 249 258 260 263 274 285 291 297 300 297 294 291 297 298 287 291 304 313 315 317 319 317 320 324 323 319 313 312 308 301 292 282 283 284 282 279 278 285 284 284
220 222 223 225 225 225 228 231 236 248 260 263 266 273 282 285 294 297 292 286 288 289 290 284 288 295 302 306 309 310 311 313 316 316 312 309 308 304 302 294 287 286 289 289 288 281 280 282 285
221 223 224 224 224 226 230 230 234 246 253 258 265 271 278 278 286 290 289 285 286 286 285 286 286 288 292 297 299 302 303 305 308 311 310 307 308 300 295 292 287 289 292 290 289 283 279 282 281
Height
5919 5919 5919 5918 5918 5917 5915 5915 5915 5914 5913 5911 5910 5910 5910 5909 5908 5910 5907 5905 5904 5904 5904 5904 5904 5904 5904 5904 5904 5903 5903 5903 5903 5903 5903 5902 5902 5902 5902 5902 5901 5901 5901 5901 5901 5901 5900 5900 5900
5922 5921 5922 5920 5919 5918 5918 5917 5917 5916 5915 5913 5913 5912 5911 5910 5909 5909 5908 5906 5905 5905 5905 5905 5905 5905 5905 5905 5905 5905 5905 5905 5905 5904 5904 5904 5904 5903 5903 5903 5903 5903 5903 5902 5902 5902 5902 5902 5901
5924 5924 5924 5922 5921 5920 5921 5919 5919 5918 5917 5916 5916 5915 5913 5912 5910 5909 5909 5907 5907 5907 5907 5907 5907 5907 5907 5907 5906 5906 5906 5906 5906 5906 5906 5905 5905 5905 5904 5904 5904 5904 5904 5904 5904 5903 5903 5903 5903
5927 5926 5925 5924 5922 5922 5922 5922 5921 5920 5920 5918 5918 5917 5915 5913 5912 5911 5910 5909 5908 5909 5909 5908 5908 5908 5908 5908 5907 5907 5907 5907 5907 5907 5907 5907 5906 5906 5906 5906 5905 5905 5905 5905 5905 5905 5905 5904 5904
5929 5927 5925 5924 5924 5924 5924 5924 5923 5923 5922 5920 5919 5918 5917 5915 5913 5912 5911 5911 5910 5910 5910 5910 5909 5909 5909 5909 5908 5908 5908 5908 5908 5908 5908 5908 5908 5907 5907 5907 5907 5907 5907 5907 5906 5906 5906 5906 5906
5931 5929 5928 5927 5926 5926 5927 5927 5926 5926 5924 5923 5922 5920 5918 5917 5915 5914 5913 5912 5912 5912 5911 5910 5910 5910 5910 5910 5910 5909 5909 5909 5909 5909 5909 5909 5909 5908 5908 5908 5908 5908 5908 5908 5908 5907 5907 5907 5907
5932 5931 5929 5929 5928 5928 5929 5929 5929 5928 5926 5925 5923 5922 5920 5919 5917 5916 5915 5914 5913 5913 5912 5912 5911 5911 5911 5910 5910 5910 5910 5910 5910 5910 5910 5910 5909 5909 5909 5909 5909 5909 5909 5909 5909 5909 5908 5908 5908
5933 5933 5931 5931 5931 5930 5931 5931 5931 5930 5928 5927 5925 5924 5923 5921 5919 5918 5916 5916 5915 5914 5913 5913 5912 5912 5911 5911 5911 5911 5911 5910 5910 5910 5910 5910 5910 5910 5910 5910 5910 5910 5910 5910 5910 5910 5910 5909 5909
5934 5935 5933 5933 5933 5933 5932 5932 5932 5931 5930 5928 5926 5926 5925 5923 5921 5920 5918 5917 5916 5915 5914 5913 5913 5912 5912 5911 5911 5911 5911 5911 5911 5911 5911 5911 5911 5911 5911 5910 5910 5910 5910 5910 5910 5911 5911 5911 5910
5935 5935 5935 5935 5935 5934 5934 5934 5933 5932 5931 5930 5929 5927 5926 5925 5923 5922 5920 5919 5918 5916 5915 5915 5914 5913 5913 5912 5912 5912 5912 5911 5911 5911 5911 5911 5911 5911 5911 5911 5911 5911 5911 5911 5911 5911 5911 5911 5911
5935 5936 5936 5936 5936 5935 5935 5935 5935 5934 5934 5932 5931 5929 5928 5927 5925 5924 5922 5921 5919 5918 5916 5916 5915 5914 5914 5913 5913 5912 5912 5912 5912 5912 5912 5912 5912 5912 5912 5912 5912 5912 5912 5912 5912 5912 5912 5912 5912
5935 5936 5936 5937 5937 5937 5936 5936 5936 5936 5936 5934 5932 5931 5930 5928 5926 5925 5924 5922 5921 5919 5918 5917 5916 5915 5915 5914 5914 5913 5913 5912 5912 5912 5912 5912 5912 5913 5913 5913 5913 5913 5913 5912 5912 5912 5912 5913 5912
5935 5936 5936 5937 5937 5937 5937 5937 5937 5937 5936 5935 5933 5932 5931 5929 5928 5926 5925 5924 5922 5921 5919 5918 5917 5916 5916 5915 5914 5913 5913 5913 5913 5913 5913 5913 5913 5913 5913 5913 5913 5914 5913 5913 5913 5913 5913 5913 5913
5935 5935 5936 5937 5937 5937 5938 5938 5938 5938 5937 5936 5935 5934 5932 5931 5929 5927 5926 5924 5923 5922 5920 5919 5918 5917 5916 5915 5915 5914 5913 5913 5913 5913 5913 5913 5913 5914 5914 5914 5914 5914 5914 5914 5914 5913 5913 5913 5913
5935 5936 5936 5937 5937 5937 5938 5939 5939 5938 5938 5937 5936 5935 5934 5932 5930 5929 5927 5925 5924 5922 5921 5919 5918 5917 5916 5915 5915 5914 5914 5913 5913 5913 5913 5913 5913 5914 5914 5914 5914 5914 5914 5914 5914 5914 5914 5914 5913
5934 5935 5935 5936 5937 5938 5939 5939 5939 5938 5938 5937 5937 5936 5935 5933 5932 5930 5928 5927 5925 5923 5922 5920 5918 5917 5917 5916 5915 5915 5914 5913 5913 5913 5913 5913 5913 5914 5914 5914 5914 5914 5914 5914 5914 5914 5914 5914 5914
5933 5934 5934 5935 5936 5937 5938 5938 5938 5938 5938 5937 5937 5936 5935 5934 5932 5931 5929 5928 5926 5924 5922 5921 5920 5918 5917 5916 5915 5915 5914 5913 5913 5913 5913 5913 5913 5913 5914 5914 5914 5914 5914 5914 5914 5914 5914 5914 5914
5931 5932 5933 5934 5935 5936 5937 5937 5938 5938 5938 5937 5937 5936 5935 5934 5933 5932 5930 5928 5927 5925 5923 5922 5920 5919 5918 5917 5916 5915 5914 5913 5912 5912 5913 5913 5913 5913 5913 5913 5913 5913 5913 5913 5913 5913 5913 5913 5913
5928 5929 5931 5932 5934 5934 5935 5935 5936 5937 5937 5937 5936 5936 5935 5934 5933 5932 5930 5929 5927 5926 5924 5923 5921 5919 5918 5917 5915 5914 5913 5913 5912 5912 5912 5912 5912 5912 5912 5912 5912 5912 5913 5913 5912 5912 5912 5912 5912
5925 5926 5928 5930 5931 5932 5933 5934 5934 5935 5936 5936 5935 5935 5934 5933 5933 5932 5930 5928 5927 5926 5925 5923 5921 5919 5918 5917 5915 5914 5913 5912 5912 5911 5911 5911 5911 5911 5911 5911 5911 5911 5911 5911 5911 5911 5911 5911 5911
5921 5924 5926 5927 5928 5929 5931 5932 5933 5933 5933 5934 5934 5934 5934 5933 5932 5932 5931 5929 5927 5926 5925 5923 5921 5919 5918 5916 5915 5914 5913 5912 5911 5910 5910 5909 5909 5909 5909 5909 5909 5909 5909 5909 5909 5909 5909 5909 5909
5918 5921 5923 5924 5926 5927 5929 5929 5931 5930 5931 5931 5932 5932 5933 5932 5931 5931 5930 5929 5927 5926 5924 5923 5921 5919 5917 5915 5914 5913 5912 5911 5910 5909 5908 5908 5908 5908 5907 5907 5907 5907 5907 5907 5907 5907 5907 5907 5907
5915 5918 5919 5921 5922 5924 5925 5926 5928 5928 5929 5930 5930 5930 5931 5931 5930 5929 5929 5928 5926 5924 5923 5921 5920 5918 5916 5915 5913 5912 5911 5910 5909 5908 5907 5907 5906 5906 5905 5905 5905 5905 5905 5905 5905 5905 5905 5904 5904
5910 5913 5915 5917 5918 5920 5922 5923 5924 5925 5926 5927 5928 5928 5929 5928 5928 5927 5927 5926 5925 5923 5921 5920 5918 5917 5915 5914 5913 5911 5910 5909 5908 5907 5906 5905 5904 5904 5903 5903 5903 5903 5903 5903 5902 5902 5902 5902 5901
5905 5908 5911 5913 5914 5916 5918 5919 5921 5923 5924 5924 5925 5926 5926 5926 5926 5926 5925 5924 5923 5922 5921 5919 5918 5916 5915 5913 5912 5910 5909 5908 5907 5905 5904 5903 5902 5902 5901 5901 5900 5900 5900 5900 5900 5899 5899 5898 5898
5899 5903 5907 5909 5911 5913 5915 5915 5918 5919 5919 5920 5921 5922 5923 5924 5924 5923 5923 5921 5921 5920 5919 5918 5916 5914 5913 5912 5910 5909 5908 5907 5905 5904 5902 5901 5900 5900 5899 5898 5898 5897 5897 5897 5896 5896 5896 5895 5895
5894 5897 5902 5904 5906 5909 5910 5912 5913 5914 5915 5917 5917 5918 5920 5920 5921 5920 5919 5919 5919 5918 5917 5916 5915 5913 5912 5910 5909 5907 5906 5905 5904 5902 5901 5900 5898 5898 5896 5895 5895 5894 5894 5894 5893 5893 5893 5892 5891
5889 5893 5896 5898 5901 5904 5906 5907 5910 5910 5911 5913 5914 5915 5915 5916 5917 5917 5916 5916 5916 5915 5914 5914 5913 5911 5910 5909 5907 5905 5904 5903 5902 5901 5899 5898 5896 5895 5893 5892 5892 5892 5891 5891 5890 5890 5889 5889 5888
5884 5887 5890 5894 5896 5899 5902 5906 5907 5907 5908 5909 5910 5911 5912 5912 5913 5913 5913 5913 5912 5911 5911 5910 5909 5908 5907 5906 5905 5903 5902 5901 5900 5898 5897 5895 5893 5892 5890 5889 5889 5889 5888 5888 5887 5886 5886 5885 5884
5878 5882 5885 5889 5892 5895 5897 5903 5903 5904 5905 5906 5908 5908 5909 5909 5910 5910 5909 5909 5908 5907 5907 5907 5906 5905 5904 5903 5902 5901 5899 5898 5897 5895 5893 5892 5890 5888 5887 5887 5886 5886 5885 5884 5883 5882 5882 5881 5880